Regional Weather Roundup
Issued by NWS

Home | Current Version | Previous Version | Text Only | Print | Product List | Glossary Off
Versions: 1 2 3 4 5 6 7 8 9 10 11 12 13 14 15 16 17 18 19 20 21 22 23 24 25 26 27 28 29 30 31 32 33 34 35 36 37 38 39 40 41 42 43 44 45 46 47 48 49 50

000
ASUS43 KLOT 242203
RWRIL

ILLINOIS REGIONAL WEATHER ROUNDUP
NATIONAL WEATHER SERVICE CHICAGO/ROMEOVILLE IL
500 PM CDT SUN JUL 24 2016

NOTE: "FAIR" INDICATES FEW OR NO CLOUDS BELOW 12,000 FEET WITH NO
SIGNIFICANT WEATHER AND/OR OBSTRUCTIONS TO VISIBILITY.

* THESE STATIONS ARE NOT UNDER NWS QUALITY CONTROL. THEY ALSO MAY NOT
  REPORT WEATHER SUCH AS PRECIPITATION OR FOG.

ILZ001-002-007-009-015-016-024-242300-
NORTHWEST ILLINOIS

CITY           SKY/WX    TMP DP  RH WIND       PRES   REMARKS
MOLINE         MOSUNNY   89  78  70 SW6       29.87R HX 103
SAVANNA*       SUNNY     90  80  71 W9        29.86S HX 107
$$

ILZ003-004-008-010-011-017-018-242300-
NORTH CENTRAL ILLINOIS

CITY           SKY/WX    TMP DP  RH WIND       PRES   REMARKS
ROCKFORD       PTSUNNY   94  79  61 SW14      29.86S HX 111
FREEPORT*      PTSUNNY   89  80  76 W9        29.87S HX 106
ROCHELLE*      PTSUNNY   87  81  80 SW7       29.87F HX 104
DE KALB*       MOSUNNY   89  80  74 W12       29.87F HX 106
$$

ILZ005-006-012>014-019>023-242300-
NORTHEAST ILLINOIS

CITY           SKY/WX    TMP DP  RH WIND       PRES   REMARKS
CHICAGO-OHARE  CLOUDY    91  78  65 SW10      29.84F HX 106
CHICAGO-MIDWAY CLOUDY    92  79  65 S15G24    29.86S HX 108
AURORA         MOSUNNY   92  80  68 SW10G20   29.86F HX 110
LANSING*       CLOUDY    90  78  68 SW16G23   29.88F HX 104
WAUKEGAN       CLOUDY    92  79  65 SW12G18   29.83F HX 108
DUPAGE AIRPORT MOSUNNY   91  79  67 SW13G22   29.85F THUNDER HX 107
WHEELING       CLOUDY    92  73  53 SW9G25    29.85F HX 100
MORRIS*        LGT RAIN  88  82  82 SW9       29.86F HX 107
NORTHERLY ISL    N/A     89  76  65 S12         N/A  HX 100
$$

LMZ740>746-242300-
SOUTHERN LAKE MICHIGAN

STATION/POSITION SKY/WX   TEMP    WIND        PRES    VSBY  WAVE
                          AIR SEA DIR/SP/G                  HT/PER
                          (F)     (DEG/KT/KT) (MB)    (MI)  (FT/S)
SOUTHERN BUOY              76 72  170/ 16/ 16 1009.1          3/ 5
WILMETTE HARBOR            81 63  250/ 14/ 19   N/A           2/ 2
HARRISON CRIB              88     200/ 23/ 24   N/A
BURNHAM HARBOR             90     190/ 17/ 20   N/A
CALUMET HARBOR             89     190/  8/ 16 1011.1R
BURNS HARBOR               88     210/ 12/ 20 1012.2R
MICHIGAN CITY              86     180/ 11/ 15   N/A
MICHIGAN CITY 6N           82 74  210/ 10/ 14   N/A           2/ 2
ST. JOSEPH                 80 74  190/ 10/ 12 1011.2F         2/ 3
$$

ILZ025>027-034>036-040-047-049-050-058-095>099-242300-
WEST-CENTRAL ILLINOIS

CITY           SKY/WX    TMP DP  RH WIND       PRES   REMARKS
QUINCY         CLOUDY    91  79  67 SW8       29.89F HX 107
GALESBURG*     PTSUNNY   88  79  75 NW8       29.89S HX 103
MACOMB*        CLOUDY    89  81  77 W6        29.91R HX 106
JACKSONVILLE*  SUNNY     92  80  66 S12       29.89S HX 110
PITTSFIELD*    CLOUDY    92  82  72 W5        29.91S HX 113
$$

ILZ028>032-037-038-041>044-048-051>054-059>061-242300-
CENTRAL ILLINOIS

CITY           SKY/WX    TMP DP  RH WIND       PRES   REMARKS
PONTIAC        MOSUNNY   91  83  79 S10       29.90S HX 115
BLOOMINGTON    CLOUDY    86  81  85 S9        29.92R HX 102
DECATUR        MOSUNNY   93  79  63 S13       29.91F HX 110
PEORIA         PTSUNNY   92  83  75 SW13      29.88F HX 116
LACON*         PTSUNNY   91  81  71 SW12      29.86S HX 111
LINCOLN*       CLOUDY    89  83  80 S6        29.89S HX 111
SPRINGFIELD    CLOUDY    93  79  63 SW12      29.89F HX 110
TAYLORVILLE    SUNNY     90  81  74 NW10G16   29.91F HX 108
$$

ILZ033-039-045-046-055>057-062-063-242300-
EAST-CENTRAL ILLINOIS

CITY           SKY/WX    TMP DP  RH WIND       PRES   REMARKS
CHAMPAIGN      CLOUDY    86  79  79 S9        29.92F HX  99
MATTOON        MOSUNNY   89  77  67 S10       29.93F HX 101
PARIS*         MOSUNNY   88  81  79 S6        29.94F HX 106
$$

ILZ079-100>102-242300-
SOUTHWEST ILLINOIS

CITY           SKY/WX    TMP DP  RH WIND       PRES   REMARKS
BELLEVILLE     MOSUNNY   92  81  71 SE6       29.90F HX 111
CAHOKIA*       MOSUNNY   94  78  60 SE10      29.89F HX 110
SPARTA*        MOSUNNY   92  79  65 SE8       29.94S HX 107
$$

ILZ064>066-069>071-074>076-080>082-084>086-088>090-092>094-242300-
SOUTH-CENTRAL ILLINOIS

CITY           SKY/WX    TMP DP  RH WIND       PRES   REMARKS
CARBONDALE     MOSUNNY   91  75  59 S8        29.93F HX 101
CAIRO*         SUNNY     91  78  65 S5        29.93F HX 104
EFFINGHAM*     MOSUNNY   92  80  67 S7        29.95S HX 109
MT. VERNON     MOSUNNY   93  75  55 CALM      29.94F HX 104
CENTRALIA*     SUNNY     94  78  59 S5        29.93S HX 109
SALEM*         SUNNY     92  76  59 S8        29.93F HX 105
METROPOLIS*    SUNNY     91  77  63 CALM      29.95F HX 105
$$

ILZ067-068-072-073-078-083-087-091-242300-
SOUTHEAST ILLINOIS

CITY           SKY/WX    TMP DP  RH WIND       PRES   REMARKS
LAWRENCEVILLE  MOSUNNY   91  79  67 S7        29.95S HX 107
FLORA*         MOSUNNY   93  80  65 S9        29.94S HX 111
FAIRFIELD*     MOSUNNY   91  79  68 S6        29.93F HX 106
HARRISBURG*    MOSUNNY   91  79  68 S5        29.95F HX 106
ROBINSON*      MOSUNNY   90  79  69 SW8       29.95S HX 106
CARMI*         MOSUNNY   89  80  73 S6        29.94F HX 106
$$

ABBREVIATIONS USED IN REMARKS
   TC - TEMPERATURE IN CELSIUS
  WCI - WIND CHILL INDEX
   HX - HEAT INDEX
  VSB - VISIBILITY
$$




USA.gov is the U.S. government's official web portal to all federal, state and local government web resources and services.